Location: �perlecques
(50.8057°N, 2.1521°E)
Time: 08:02:02
(UTC+00:00)

Daily predictions for brighter satellites

Satellite Brightness Start Highest point End
(mag) Time Altitude Azimuth Time Altitude Azimuth Time Altitude Azimuth
Cosmos 2184 Rocket 4.1 19:01:06 10° N 19:07:26 84° E 19:13:39 10° S
CZ-4C R/B 4.0 19:02:09 10° NW 19:07:45 30° NNE 19:14:13 10° ENE
ADEOS Rocket 3.6 19:01:59 10° N 19:08:20 65° WNW 19:14:04 10° SSW
Meteor 2-10 4.2 19:03:55 10° S 19:09:27 80° E 19:15:10 10° NNE
STARLINK-1246 3.8 19:05:27 10° WNW 19:09:37 74° NNE 19:13:46 10° E
Cosmos 407 Rocket 3.8 19:05:56 10° S 19:10:47 44° ESE 19:15:38 10° NE
STARLINK-1201 3.0 19:07:44 10° WNW 19:11:00 78° SSW 19:14:16 10° ESE
Cosmos 1656 Rocket 4.2 19:05:29 10° NW 19:11:05 64° WSW 19:16:35 10° SSE
Cosmos 1908 3.5 19:07:34 10° SSE 19:11:15 45° E 19:15:00 10° NNE
Cosmos 1328 3.8 19:07:42 10° N 19:11:43 71° ENE 19:15:43 10° SSE
Cosmos 1340 Rocket 3.6 19:08:10 10° SSE 19:11:44 31° E 19:15:19 10° NNE
FREGAT/IRIS 2.3 19:09:44 10° SSE 19:12:27 71° ENE 19:15:11 10° N
Cosmos 2228 3.1 19:09:29 10° S 19:13:43 59° E 19:18:02 10° NNE
STARLINK-1224 3.7 19:10:29 10° WNW 19:14:38 76° NNE 19:18:47 10° E
STARLINK-1203 3.7 19:12:36 10° WNW 19:16:50 80° NNE 19:21:03 10° ESE
Cosmos 1943 3.4 19:11:54 10° SSW 19:17:35 83° WNW 19:23:20 10° NNE
STARLINK-1225 3.7 19:15:28 10° WNW 19:19:38 78° NNE 19:23:47 10° ESE
MOS 1 4.3 19:14:13 10° SSE 19:19:53 85° ENE 19:25:36 10° NNW
MetOp-A 4.4 19:15:36 10° SE 19:20:46 51° ENE 19:25:57 10° N
MOS 1 Rocket 4.5 19:17:05 10° NNE 19:21:49 30° E 19:26:32 10° SSE
Resurs 01 Rocket 2.6 19:18:19 10° SE 19:22:10 30° ENE 19:26:04 10° N
STARLINK-52 4.0 19:20:02 10° SSW 19:22:47 26° SE 19:25:32 10° E
Cosmos 1758 Rocket 4.3 19:18:52 10° NNW 19:23:07 56° W 19:27:20 10° S
CZ-2C R/B 3.5 19:18:47 10° NE 19:23:09 27° E 19:27:31 10° SSE
STARLINK-1230 3.7 19:20:26 10° WNW 19:24:36 81° NNE 19:28:37 11° ESE
Nadezhda 1 Rocket 4.1 19:19:50 10° S 19:26:08 65° E 19:32:24 10° NNE
BREEZE M DEB (TANK) 4.2 19:23:38 10° S 19:26:19 20° ESE 19:31:18 10° ENE
Cosmos 1697 Rocket 4.3 19:23:35 10° NNW 19:27:56 22° NE 19:32:17 10° E
STARLINK-1243 3.6 19:25:24 10° WNW 19:29:34 83° NNE 19:33:24 12° ESE
SPOT 3 Rocket 3.6 19:24:41 10° SSE 19:29:49 62° ENE 19:34:58 10° N
SL-24 R/B - RUBIN 2 4.4 19:24:21 10° SSW 19:29:56 60° ESE 19:36:11 10° NE
Cosmos 2154 Rocket 4.0 19:24:03 10° N 19:30:28 82° E 19:36:47 10° SSE
FALCON 9 DEB 3.9 19:27:55 10° SSW 19:31:05 32° SE 19:34:15 10° E
ARGOS 3.3 19:25:54 10° SSE 19:31:17 83° WSW 19:36:42 10° NNW
Cosmos 1953 Rocket 3.8 19:26:56 10° NNW 19:31:26 80° W 19:35:56 10° S
NOSS 3-4 (A) 4.3 19:26:25 10° NW 19:33:15 63° SW 19:40:47 10° SSE
NOSS 3-4 (C) 4.3 19:26:31 10° NW 19:33:22 63° SW 19:40:54 10° SSE
Cosmos 1606 Rocket 3.7 19:28:58 10° S 19:33:26 85° WNW 19:37:56 10° N
STARLINK-1236 3.6 19:30:24 10° WNW 19:34:33 86° NNE 19:38:11 13° ESE
USA 186 2.5 19:33:34 10° S 19:36:45 53° W 19:39:48 10° NNW
STARLINK-67 4.5 19:35:16 10° W 19:37:16 20° SW 19:39:17 10° SSE
Cosmos 1953 4.2 19:36:12 10° SW 19:39:52 35° WNW 19:43:35 10° N
Meteor 1-11 4.4 19:35:46 10° NNW 19:41:34 82° W 19:47:14 10° S
Cosmos 1818 4.1 19:38:21 10° SW 19:43:45 66° NW 19:49:13 10° NE
STARLINK-1269 3.6 19:40:21 10° WNW 19:44:30 88° SSW 19:47:44 16° ESE
Cosmos 1656 4.5 19:41:56 10° NNW 19:47:15 38° NE 19:51:23 15° ESE
Cosmos 1763 Rocket 4.3 19:43:08 10° NNW 19:47:56 36° NE 19:51:29 16° ESE
STARLINK-1200 3.6 19:45:20 10° WNW 19:49:29 84° SSW 19:52:31 18° ESE
STARLINK-1234 4.2 19:51:03 10° W 19:53:51 30° SW 19:55:47 16° SSE
STARLINK-1209 4.3 19:51:33 10° W 19:54:18 29° SW 19:56:15 15° SSE
STARLINK-1192 3.6 19:50:18 10° WNW 19:54:28 81° SSW 19:57:18 20° ESE
STARLINK-1233 3.8 19:51:50 10° W 19:54:47 38° SSW 19:56:38 19° SSE
STARLINK-1212 3.8 19:52:19 10° W 19:55:15 38° SSW 19:57:04 19° SSE
STARLINK-1105 3.9 19:52:44 10° W 19:55:42 37° SSW 19:57:31 19° SSE
STARLINK-1206 3.9 19:53:13 10° W 19:56:08 37° SSW 19:57:55 19° SSE
Cosmos 1455 4.3 19:56:32 12° ENE 19:56:32 12° ENE 19:57:46 10° ENE
STARLINK-1247 3.9 19:53:41 10° W 19:56:36 37° SSW 19:58:22 19° SSE
SeaSat 1 3.4 19:52:01 10° NNE 19:56:48 51° NW 20:01:34 10° SW
STARLINK-1227 3.9 19:54:05 10° W 19:57:01 37° SSW 19:58:47 19° SSE
Iridium 4 Rocket 4.0 19:53:36 10° NNE 19:57:14 27° ENE 19:59:06 20° ESE
STARLINK-1218 3.9 19:54:36 10° W 19:57:30 36° SSW 19:59:13 19° SSE
STARLINK-1226 3.9 19:55:01 10° W 19:57:56 36° SSW 19:59:40 19° SSE
Cosmos 1980 Rocket 3.9 19:53:52 10° NNW 19:58:05 21° NE 20:02:02 11° E
STARLINK-1254 3.9 19:55:27 10° W 19:58:22 36° SSW 20:00:06 20° SSE
STARLINK-1215 3.9 19:55:57 10° W 19:58:51 35° SSW 20:00:32 20° SSE
STARLINK-1231 3.9 19:56:24 10° W 19:59:18 35° SSW 20:00:58 20° SSE
Cosmos 1174 4.2 19:55:21 10° NNW 19:59:19 64° NE 20:02:39 20° SE
STARLINK-1244 3.6 19:55:23 10° WNW 19:59:32 77° SSW 20:02:10 22° ESE
USA 234 4.2 19:54:50 10° ENE 19:59:45 22° SE 20:04:38 10° S
STARLINK-1232 4.0 19:57:18 10° W 20:00:12 35° SSW 20:01:50 20° SSE
Cosmos 1892 3.7 19:57:04 10° N 20:00:34 30° ENE 20:02:12 22° ESE
STARLINK-1217 4.0 19:57:45 10° W 20:00:39 34° SSW 20:02:16 20° SSE
Abrixas rocket 3.5 19:58:24 10° W 20:00:54 25° SSW 20:02:07 19° SSE
STARLINK-1208 4.0 19:58:10 10° W 20:01:05 34° SSW 20:02:43 20° SSE
STARLINK-1229 4.0 19:58:39 10° W 20:01:32 34° SSW 20:03:07 20° SSE
STARLINK-1271 4.0 19:59:07 10° W 20:01:59 34° SSW 20:03:34 20° SSE
STARLINK-1270 4.0 19:59:35 10° W 20:02:27 33° SSW 20:04:00 20° SSE
STARLINK-1154 4.0 20:00:01 10° W 20:02:54 33° SSW 20:04:26 20° SSE
STARLINK-1197 4.1 20:00:56 10° W 20:03:47 33° SSW 20:05:18 21° SSE
STARLINK-1189 4.1 20:01:22 10° W 20:04:14 32° SSW 20:05:43 21° SSE
STARLINK-1138 3.6 20:00:17 10° WNW 20:04:25 74° SSW 20:06:52 23° ESE
STARLINK-1198 4.1 20:01:50 10° W 20:04:41 32° SSW 20:06:10 21° SSE
H-2A R/B 3.5 20:00:10 10° SSW 20:04:56 37° W 20:09:38 10° NNW
Cosmos 1825 4.0 20:02:35 10° NNE 20:04:57 16° ENE 20:05:39 15° ENE
STARLINK-1188 4.1 20:02:16 10° W 20:05:07 32° SSW 20:06:35 21° SSE
ATLAS 5 CENTAUR R/B 1.5 20:00:54 10° SW 20:05:07 86° SE 20:09:58 10° NE
ATLAS 2AS CENTAUR R/B 3.9 19:58:12 10° NW 20:05:09 41° WSW 20:11:34 10° S
STARLINK-1235 4.4 20:03:01 10° W 20:05:45 27° SW 20:07:18 18° S
STARLINK-1187 4.3 20:03:23 10° W 20:06:12 29° SW 20:07:42 19° SSE
STARLINK-1199 4.1 20:04:14 10° W 20:07:05 31° SSW 20:08:31 21° SSE
STARLINK-1191 4.2 20:04:41 10° W 20:07:32 31° SSW 20:08:57 21° SSE
STARLINK-1210 4.2 20:05:09 10° W 20:07:59 31° SW 20:09:23 21° SSE
STARLINK-1221 4.2 20:05:36 10° W 20:08:26 31° SW 20:09:49 21° SSE
COSMOS 2455 3.3 20:02:33 10° NW 20:08:30 60° WSW 20:13:57 12° SSE
STARLINK-1219 4.2 20:06:03 10° W 20:08:53 31° SW 20:10:15 21° S
STARLINK-1222 4.2 20:06:30 10° W 20:09:19 30° SW 20:10:40 21° S
STARLINK-1143 3.7 20:05:15 10° WNW 20:09:23 70° SSW 20:11:39 26° SE
STARLINK-1211 4.2 20:06:58 10° W 20:09:47 30° SW 20:11:07 21° S
STARLINK-1214 4.2 20:07:25 10° W 20:10:13 30° SW 20:11:33 21° S
STARLINK-1245 4.2 20:07:54 10° W 20:10:41 29° SW 20:11:57 21° S
STARLINK-1238 4.2 20:08:18 10° W 20:11:07 30° SW 20:12:25 21° S
STARLINK-1205 4.3 20:09:16 10° W 20:12:01 29° SW 20:13:16 21° S
STARLINK-1204 4.3 20:09:43 10° W 20:12:29 29° SW 20:13:42 21° S
Cosmos 1140 Rocket 3.5 20:07:37 10° SSW 20:12:49 82° WNW 20:18:00 10° NNE
ERBS 2.2 20:09:32 10° WNW 20:12:55 77° SW 20:14:20 32° SE
STARLINK-1241 3.7 20:10:16 10° WNW 20:14:23 66° SSW 20:16:28 28° SE
STARLINK-29 2.8 20:15:08 10° WSW 20:18:19 68° SSE 20:19:44 30° E
STARLINK-1239 3.8 20:15:15 10° WNW 20:19:21 63° SSW 20:21:14 30° SE
SAR-Lupe-2 4.0 20:16:56 10° NNE 20:20:20 39° E 20:21:15 33° SE
ATLAS CENTAUR R/B 2.5 20:17:00 10° NNW 20:20:31 29° NE 20:22:10 21° ENE
IGS 5A 4.1 20:20:27 28° ESE 20:21:57 38° ENE 20:25:49 10° N
Cosmos 1300 2.7 20:19:20 10° S 20:23:09 84° W 20:27:00 10° N
Resurs 1-3 4.2 20:19:06 10° S 20:23:24 55° W 20:27:45 10° NNW
STARLINK-1240 3.8 20:20:14 10° WNW 20:24:19 59° SSW 20:26:01 32° SE
Spot 2 Rocket 3.6 20:22:15 24° SE 20:25:18 63° ENE 20:30:22 10° N
STARLINK-60 3.1 20:22:52 10° WSW 20:26:09 75° NNW 20:27:47 27° ENE
Cosmos 841 Rocket 4.1 20:22:10 10° NNW 20:27:12 42° ENE 20:29:32 27° ESE
Cosmos 1850 Rocket 4.3 20:24:21 17° SSE 20:27:57 41° ESE 20:32:48 10° NE
In-Cosmos 22 Rocket 4.2 20:22:34 10° NNW 20:28:28 85° ENE 20:32:45 19° SSE
STARLINK-1216 3.9 20:25:12 10° WNW 20:29:16 56° SSW 20:30:47 34° SSE
Terra 3.1 20:29:53 22° E 20:31:17 25° ENE 20:35:09 10° N
CZ-2C R/B 4.4 20:26:52 10° N 20:31:31 58° WNW 20:36:02 10° SSW
Cosmos 2082 Rocket 4.1 20:34:09 13° ENE 20:34:09 13° ENE 20:35:21 10° ENE
SPOT 5 3.6 20:31:40 26° E 20:32:44 30° ENE 20:36:30 10° N
STPSAT 2 (USA 217) 4.5 20:28:55 10° SSW 20:33:22 71° ESE 20:37:52 10° NNE
STARLINK-1237 4.0 20:30:10 10° WNW 20:34:13 53° SSW 20:35:33 36° SSE
Meteor 2-10 Rocket 4.3 20:33:52 29° ESE 20:35:11 34° E 20:40:03 10° NNE
MetOp-B 4.1 20:32:14 22° SSE 20:35:44 86° ENE 20:41:09 10° NNW
Cosmos 1833 Rocket 3.7 20:39:02 25° E 20:39:02 25° E 20:43:06 10° NE
STARLINK-1202 4.0 20:35:11 10° WNW 20:39:12 49° SSW 20:40:21 37° SSE
Cosmos 468 Rocket 3.9 20:34:39 10° NNW 20:39:51 85° WSW 20:42:31 29° SSE
CARTOSAT-1 4.3 20:39:31 32° E 20:40:27 36° ENE 20:44:26 10° N
SL-4 R/B 1.6 20:42:20 10° W 20:45:45 76° N 20:46:33 49° ENE
Cosmos 1408 2.7 20:43:03 10° N 20:46:40 52° ENE 20:46:55 51° E
ERS-1 Rocket 3.2 20:47:00 36° ESE 20:48:41 53° ENE 20:53:35 10° N
STARLINK-1246 4.2 20:45:09 10° WNW 20:49:06 44° SSW 20:49:54 38° S
RESURS DK-1 2.3 20:45:09 10° NNW 20:49:19 71° NE 20:50:15 50° ESE
Cosmos 1766 Rocket 4.0 20:47:53 10° N 20:52:12 44° ENE 20:52:50 41° E
Cosmos 1570 Rocket 4.0 20:47:09 10° NNW 20:52:33 74° ENE 20:54:32 39° SE
BREEZE M DEB (TANK) 2.8 20:46:27 10° WSW 20:53:04 59° SSE 20:53:25 55° SE
Okean 3 Rocket 3.8 20:49:26 10° N 20:53:47 53° ENE 20:54:33 47° ESE
Meteor 2-12 Rocket 4.4 20:47:53 10° N 20:54:02 89° W 20:57:32 27° S
STARLINK-1224 4.3 20:50:11 10° WNW 20:54:05 41° SSW 20:54:43 38° S
Cosmos 2058 3.3 20:51:32 10° NNW 20:55:36 59° W 20:57:23 31° SSW
STARLINK-1203 4.4 20:52:33 10° WNW 20:56:27 38° SW 20:57:04 35° SSW
CZ-4C R/B 3.1 20:50:53 10° NW 20:57:38 59° NE 21:01:49 29° ESE
COSMOS 2406 3.3 20:54:52 24° S 20:58:09 55° ESE 21:03:44 10° NE
Resurs 01 Rocket 3.0 20:55:18 14° SSW 20:58:35 36° W 21:02:42 10° NNW
STARLINK-52 3.0 20:55:30 10° WSW 20:58:27 73° W 20:58:27 73° W
STARLINK-1225 4.3 20:55:11 10° WNW 20:59:03 38° SW 20:59:30 37° SSW
MOS 1 Rocket 4.5 20:55:01 10° N 21:00:15 51° WNW 21:05:29 10° SW
Cosmos 2218 Rocket 4.4 20:56:19 10° NNW 21:02:26 62° W 21:07:06 18° S
CZ-2C R/B 3.4 20:58:43 10° N 21:03:44 51° WNW 21:08:45 10° SW
STARLINK-1230 4.5 21:00:10 10° WNW 21:03:59 36° SW 21:04:16 35° SSW
Cosmos 1812 Rocket 3.9 21:02:25 20° SSW 21:05:21 63° WNW 21:09:41 10° N
Cosmos 2151 2.8 21:02:49 10° N 21:07:03 79° E 21:07:34 66° SE
FALCON 9 DEB 3.2 21:04:28 10° WSW 21:07:53 76° NW 21:07:53 76° NW
Cosmos 1697 Rocket 2.6 21:07:07 10° NNW 21:12:49 81° ENE 21:14:29 48° SE
Cosmos 2369 3.6 21:07:15 10° NNW 21:12:56 79° ENE 21:14:33 48° SE
Cosmos 1741 Rocket 4.1 21:21:15 14° SSW 21:25:52 76° WNW 21:31:15 10° NNE
Landsat 7 4.4 21:25:10 38° SSW 21:26:38 53° W 21:31:19 10° NNW
Cosmos 1763 Rocket 4.4 21:24:58 10° NW 21:29:49 41° WSW 21:31:31 31° SSW
Cosmos 1656 4.3 21:25:37 10° NW 21:31:03 48° WSW 21:32:50 36° SSW
Cosmos 1455 2.4 21:31:25 67° WNW 21:31:25 67° WNW 21:35:08 10° N
Cosmos 1408 Rocket 3.6 21:27:06 10° N 21:31:22 65° ENE 21:31:22 65° ENE
SPOT 1/Viking Rocket 4.0 21:30:43 39° SSW 21:32:25 57° W 21:37:36 10° NNW
Cosmos 540 Rocket 3.5 21:28:19 10° NNW 21:33:29 73° WSW 21:34:20 59° S
Cosmos 1743 Rocket 4.4 21:29:58 10° N 21:33:44 38° NE 21:33:44 38° NE
SL-16 R/B 3.5 21:29:34 10° NNW 21:34:32 30° NE 21:36:11 26° ENE
Cosmos 2360 Rocket 4.2 21:30:49 10° N 21:34:43 19° NNE 21:37:32 13° ENE
Cosmos 2208 Rocket 4.2 21:29:53 10° NNW 21:35:02 63° WSW 21:36:03 52° SSW
Cosmos 1825 2.9 21:37:06 10° NNW 21:40:28 51° WNW 21:40:28 51° WNW
Cosmos 2322 Rocket 3.5 21:36:36 10° NNW 21:41:28 29° NE 21:43:04 25° ENE
Cosmos 1980 Rocket 2.1 21:37:23 10° NNW 21:43:03 78° ENE 21:43:48 66° ESE
Nadezhda 3 Rocket 3.9 21:41:26 45° S 21:43:34 90° SE 21:49:53 10° N
USA 234 3.1 21:37:06 10° ENE 21:43:37 66° SE 21:50:07 10° SW
Cosmos 2221 4.1 21:46:37 26° NE 21:46:37 26° NE 21:48:58 10° NNE
Cosmos 1814 Rocket 4.3 21:40:01 10° NNW 21:45:18 61° WSW 21:46:08 54° SSW
Cosmos 1535 Rocket 4.4 21:39:41 10° N 21:45:52 74° ENE 21:46:59 60° SE
Cosmos-2242 3.5 21:45:30 52° WSW 21:46:02 56° WNW 21:50:20 10° N
ASTEX 1 3.4 21:50:00 70° ENE 21:50:00 70° ENE 21:54:51 10° N
ATLAS 5 CENTAUR R/B 3.8 21:46:30 10° W 21:50:23 28° NNW 21:54:47 10° NE
Cosmos 1356 Rocket 4.4 21:49:52 40° WSW 21:50:40 45° WNW 21:54:46 10° N
Meteor 2-3 Rocket 3.6 21:48:53 10° NNW 21:54:40 88° WSW 21:55:21 71° S
Cosmos 2084 4.0 21:53:20 10° NW 21:57:21 54° NNE 21:57:21 54° NNE
ATLAS CENTAUR R/B 2.7 21:55:53 10° NW 21:58:21 32° WNW 21:58:21 32° WNW
Mayak 0.1 22:02:33 10° NNE 22:04:58 33° NNE 22:04:58 33° NNE
Cosmos 1842 Rocket 4.5 22:09:34 42° NNE 22:09:34 42° NNE 22:12:30 10° NNE
Terra 2.3 22:08:46 52° W 22:08:46 52° W 22:13:26 10° NNW
Cosmos 1934 Rocket 3.9 22:04:15 10° NNW 22:10:31 76° W 22:11:27 63° SSW
SPOT 5 3.8 22:10:53 35° W 22:10:53 35° W 22:14:46 10° NNW
Cosmos 2360 4.5 22:05:22 10° NW 22:10:56 55° WSW 22:11:16 54° SW
Cosmos 2278 4.0 22:08:38 10° NW 22:14:10 55° WSW 22:14:24 55° WSW
Cosmos 2082 Rocket 2.1 22:15:56 74° ENE 22:15:56 74° ENE 22:21:14 10° NNE
Cosmos 1833 Rocket 2.9 22:20:37 48° WSW 22:22:04 65° WNW 22:27:43 10° NNE
Meteor 2-2 Rocket 4.5 22:24:29 57° ENE 22:24:29 57° ENE 22:29:22 10° NNE
Cosmos 1605 Rocket 3.8 22:22:46 10° N 22:28:57 83° W 22:29:21 77° SSW
Cosmos 2219 Rocket 4.3 22:27:57 10° N 22:31:50 19° NNE 22:34:41 13° ENE
Cosmos 2344 4.3 22:25:01 10° NW 22:34:24 77° SW 22:38:35 48° SSE
ALOS 2 4.0 22:36:50 34° NNE 22:36:50 34° NNE 22:39:47 10° N
NOSS 2-1 (C) 4.4 22:32:04 10° NW 22:36:52 60° NE 22:37:02 60° NE
NOSS 2-1 (D) 4.4 22:36:19 10° NW 22:41:08 64° NE 22:41:11 64° NE
Cosmos 1339 Rocket 4.4 22:42:33 77° SW 22:42:59 83° W 22:49:27 10° N
CZ-4C R/B 3.2 22:39:28 10° NW 22:46:21 50° WSW 22:47:00 49° SW
Cosmos 1697 Rocket 4.5 22:52:09 10° NW 22:56:07 20° W 22:56:13 20° WSW
COSMOS 2428 4.5 22:56:57 10° NNW 23:01:36 25° NE 23:03:37 20° ENE
Cosmos 1607 3.9 23:12:04 74° WNW 23:12:14 74° NW 23:18:31 10° NE
Thor Agena Rocket 4.3 23:12:22 10° N 23:16:56 47° NW 23:16:56 47° NW
SL-16 R/B 2.7 23:13:28 10° NW 23:18:02 54° WNW 23:18:02 54° WNW
Cosmos 2360 Rocket 2.5 23:14:14 10° NNW 23:19:17 61° NNE 23:19:17 61° NNE
Cosmos 2221 4.4 23:23:27 26° NW 23:23:27 26° NW 23:26:24 10° N
Cosmos 2322 Rocket 2.7 23:20:25 10° NNW 23:24:52 54° WNW 23:24:52 54° WNW
Cosmos 1980 Rocket 4.0 23:22:23 10° NW 23:25:34 20° W 23:25:34 20° W
USA 234 3.6 23:20:13 10° ENE 23:26:40 64° NNW 23:33:07 10° W
Cosmos 2061 Rocket 4.0 23:24:51 10° N 23:30:49 78° NNE 23:30:49 78° NNE
Cosmos 1459 Rocket 4.1 23:30:13 10° NNW 23:36:11 68° WNW 23:36:11 68° WNW
ATLAS 5 CENTAUR R/B 4.4 23:32:55 10° NW 23:36:38 21° N 23:40:45 10° NE
MOS 1-B Rocket 4.2 23:34:14 10° NNE 23:40:21 71° E 23:40:21 71° E
Mayak 1.2 23:39:05 10° NNW 23:41:32 17° NW 23:41:32 17° NW
Cosmos 2333 Rocket 3.0 23:36:42 10° NNW 23:42:06 43° NE 23:42:26 43° ENE
Cosmos 2237 Rocket 4.3 23:38:21 10° NNW 23:42:44 22° NE 23:46:25 13° E
Cosmos 2233 Rocket 4.2 23:41:46 10° N 23:47:50 60° ENE 23:47:50 60° ENE
Cosmos 1864 Rocket 4.5 23:42:06 10° N 23:48:08 81° N 23:48:08 81° N
Cosmos 1680 Rocket 4.4 23:44:35 10° NNW 23:49:10 43° NE 23:49:10 43° NE
SL-16 R/B 4.2 23:48:43 19° E 23:51:23 26° NE 23:56:19 10° N
